Location: LDNL
(36.4545°S, 141.6685°E)
Time: 12:44:28
(UTC+10:00)

Vanguard 3 - Pass Details

Date: 31 January 2022
Orbit: 508 x 3258 km, 33.3° (Epoch: 25 May)

Event Time Altitude Azimuth Distance (km) Brightness Sun altitude
Rises 01:09:52 0° 287° (WNW) 3,702 - -35.3°
Reaches altitude 10° 01:12:00 10° 289° (WNW) 2,998 - -35.4°
Maximum altitude 01:19:35 71° 12° (NNE) 1,720 - -35.6°
Exits shadow 01:22:23 54° 72° (ENE) 2,153 8.9 -35.7°
Drops below altitude 10° 01:33:33 10° 92° (E) 5,248 11.2 -35.9°
Sets 01:38:33 0° 93° (E) 6,623 11.8 -36.0°
